owner,sensor,date,latitude,longitude,vertical_datum,sea_water_temperature,qcFlag
Shell,ioos:station:wmo:42873:1,2022-01-08T21:04:00Z,28.1860,-89.1790,11.0,24.0,11111222
Shell,ioos:station:wmo:42873:1,2022-01-08T21:14:00Z,28.1860,-89.1790,11.0,24.1,11111222
Shell,ioos:station:wmo:42873:1,2022-01-08T21:24:00Z,28.1860,-89.1790,11.0,24.1,11111222
Shell,ioos:station:wmo:42873:1,2022-01-08T21:34:00Z,69.0262,-115.6300,11.0,24.0,11111222
Shell,ioos:station:wmo:42873:1,2022-01-08T21:44:00Z,28.1860,-89.1790,11.0,24.1,11111222
Shell,ioos:station:wmo:42873:1,2022-01-08T21:54:00Z,28.1860,-89.1790,11.0,24.1,11111222
Shell,ioos:station:wmo:42873:1,2022-01-08T22:04:00Z,28.1860,-89.1790,11.0,24.1,11111222
Shell,ioos:station:wmo:42873:1,2022-01-08T22:14:00Z,28.1860,-89.1790,11.0,24.0,11111222
Shell,ioos:station:wmo:42873:1,2022-01-08T22:24:00Z,28.1860,-89.1790,11.0,24.1,11111222
Shell,ioos:station:wmo:42873:1,2022-01-08T22:34:00Z,28.1860,-89.1790,11.0,24.1,11111222
Shell,ioos:station:wmo:42873:1,2022-01-08T22:44:00Z,28.1860,-89.1790,11.0,24.1,11111222
Shell,ioos:station:wmo:42873:1,2022-01-08T22:54:00Z,28.1860,-89.1790,11.0,24.1,11111222
Shell,ioos:station:wmo:42873:1,2022-01-08T23:04:00Z,28.1860,-89.1790,11.0,24.1,11111222
Shell,ioos:station:wmo:42873:1,2022-01-08T23:14:00Z,28.1860,-89.1790,11.0,24.1,11111222
Shell,ioos:station:wmo:42873:1,2022-01-08T23:24:00Z,28.1860,-89.1790,11.0,24.1,11111222
Shell,ioos:station:wmo:42873:1,2022-01-08T23:34:00Z,28.1860,-89.1790,11.0,24.1,11111222
Shell,ioos:station:wmo:42873:1,2022-01-08T23:44:00Z,28.1860,-89.1790,11.0,24.1,11111222
Shell,ioos:station:wmo:42873:1,2022-01-08T23:54:00Z,28.1860,-89.1790,11.0,24.1,11111222
Shell,ioos:station:wmo:42873:1,2022-01-09T00:04:00Z,28.1860,-89.1790,11.0,24.1,11111222
Shell,ioos:station:wmo:42873:1,2022-01-09T00:14:00Z,28.1860,-89.1790,11.0,24.1,11111222
Shell,ioos:station:wmo:42873:1,2022-01-09T00:24:00Z,28.1860,-89.1790,11.0,24.1,11111222
Shell,ioos:station:wmo:42873:1,2022-01-09T00:34:00Z,28.1860,-89.1790,11.0,24.0,11111222
Shell,ioos:station:wmo:42873:1,2022-01-09T00:44:00Z,28.1860,-89.1790,11.0,24.0,11111222
Shell,ioos:station:wmo:42873:1,2022-01-09T00:54:00Z,28.1860,-89.1790,11.0,24.0,11111222
Shell,ioos:station:wmo:42873:1,2022-01-09T01:04:00Z,28.1860,-89.1790,11.0,24.0,11111222
Shell,ioos:station:wmo:42873:1,2022-01-09T01:14:00Z,28.1860,-89.1790,11.0,24.0,11111222
Shell,ioos:station:wmo:42873:1,2022-01-09T01:24:00Z,28.1860,-89.1790,11.0,24.0,11111222
Shell,ioos:station:wmo:42873:1,2022-01-09T01:34:00Z,28.1860,-89.1790,11.0,24.0,11111222
Shell,ioos:station:wmo:42873:1,2022-01-09T01:44:00Z,28.1860,-89.1790,11.0,24.0,11111222
Shell,ioos:station:wmo:42873:1,2022-01-09T01:54:00Z,28.1860,-89.1790,11.0,23.9,11111222
Shell,ioos:station:wmo:42873:1,2022-01-09T02:04:00Z,28.1860,-89.1790,11.0,23.8,11111222
Shell,ioos:station:wmo:42873:1,2022-01-09T02:14:00Z,28.1860,-89.1790,11.0,23.8,11111222
Shell,ioos:station:wmo:42873:1,2022-01-09T02:24:00Z,28.1860,-89.1790,11.0,23.7,11111222
Shell,ioos:station:wmo:42873:1,2022-01-09T02:34:00Z,28.1860,-89.1790,11.0,23.7,11111222
Shell,ioos:station:wmo:42873:1,2022-01-09T02:44:00Z,28.1860,-89.1790,11.0,23.7,11111222
Shell,ioos:station:wmo:42873:1,2022-01-09T02:54:00Z,28.1860,-89.1790,11.0,23.7,11111222
Shell,ioos:station:wmo:42873:1,2022-01-09T03:04:00Z,28.1860,-89.1790,11.0,23.7,11111222
Shell,ioos:station:wmo:42873:1,2022-01-09T03:14:00Z,28.1860,-89.1790,11.0,23.7,11111222
Shell,ioos:station:wmo:42873:1,2022-01-09T03:24:00Z,28.1860,-89.1790,11.0,23.6,11111222
Shell,ioos:station:wmo:42873:1,2022-01-09T03:34:00Z,28.1860,-89.1790,11.0,23.6,11111222
Shell,ioos:station:wmo:42873:1,2022-01-09T03:44:00Z,28.1860,-89.1790,11.0,23.6,11111222
Shell,ioos:station:wmo:42873:1,2022-01-09T03:54:00Z,28.1860,-89.1790,11.0,23.6,11111222
Shell,ioos:station:wmo:42873:1,2022-01-09T04:04:00Z,28.1860,-89.1790,11.0,23.6,11111222
Shell,ioos:station:wmo:42873:1,2022-01-09T04:14:00Z,28.1860,-89.1790,11.0,23.6,11111222
Shell,ioos:station:wmo:42873:1,2022-01-09T04:24:00Z,28.1860,-89.1790,11.0,23.6,11111222
Shell,ioos:station:wmo:42873:1,2022-01-09T04:34:00Z,28.1860,-89.1790,11.0,23.6,11111222
Shell,ioos:station:wmo:42873:1,2022-01-09T04:44:00Z,28.1860,-89.1790,11.0,23.6,11111222
Shell,ioos:station:wmo:42873:1,2022-01-09T04:54:00Z,28.1860,-89.1790,11.0,23.6,11111222
Shell,ioos:station:wmo:42873:1,2022-01-09T05:04:00Z,28.1860,-89.1790,11.0,23.6,11111222
Shell,ioos:station:wmo:42873:1,2022-01-09T05:14:00Z,28.1860,-89.1790,11.0,23.6,11111222
Shell,ioos:station:wmo:42873:1,2022-01-09T05:24:00Z,28.1860,-89.1790,11.0,23.6,11111222
Shell,ioos:station:wmo:42873:1,2022-01-09T05:34:00Z,28.1860,-89.1790,11.0,23.6,11111222
Shell,ioos:station:wmo:42873:1,2022-01-09T05:44:00Z,28.1860,-89.1790,11.0,23.6,11111222
Shell,ioos:station:wmo:42873:1,2022-01-09T05:54:00Z,28.1860,-89.1790,11.0,23.6,11111222
Shell,ioos:station:wmo:42873:1,2022-01-09T06:04:00Z,28.1860,-89.1790,11.0,23.6,11111222
Shell,ioos:station:wmo:42873:1,2022-01-09T06:14:00Z,28.1860,-89.1790,11.0,23.6,11111222
Shell,ioos:station:wmo:42873:1,2022-01-09T06:24:00Z,28.1860,-89.1790,11.0,23.6,11111222
Shell,ioos:station:wmo:42873:1,2022-01-09T06:34:00Z,28.1860,-89.1790,11.0,23.6,11111222
Shell,ioos:station:wmo:42873:1,2022-01-09T06:44:00Z,28.1860,-89.1790,11.0,23.6,11111222
Shell,ioos:station:wmo:42873:1,2022-01-09T06:54:00Z,28.1860,-89.1790,11.0,23.6,11111222
Shell,ioos:station:wmo:42873:1,2022-01-09T07:04:00Z,28.1860,-89.1790,11.0,23.6,11111222
Shell,ioos:station:wmo:42873:1,2022-01-09T07:14:00Z,28.1860,-89.1790,11.0,23.6,11111222
Shell,ioos:station:wmo:42873:1,2022-01-09T07:24:00Z,28.1860,-89.1790,11.0,23.5,11111222
Shell,ioos:station:wmo:42873:1,2022-01-09T07:34:00Z,28.1860,-89.1790,11.0,23.5,11111222
Shell,ioos:station:wmo:42873:1,2022-01-09T07:44:00Z,28.1860,-89.1790,11.0,23.5,11111222
Shell,ioos:station:wmo:42873:1,2022-01-09T07:54:00Z,28.1860,-89.1790,11.0,23.5,11111222
Shell,ioos:station:wmo:42873:1,2022-01-09T08:04:00Z,28.1860,-89.1790,11.0,23.5,11111222
Shell,ioos:station:wmo:42873:1,2022-01-09T08:14:00Z,28.1860,-89.1790,11.0,23.4,11111222
Shell,ioos:station:wmo:42873:1,2022-01-09T08:24:00Z,28.1860,-89.1790,11.0,23.4,11111222
Shell,ioos:station:wmo:42873:1,2022-01-09T08:34:00Z,28.1860,-89.1790,11.0,23.4,11111222
Shell,ioos:station:wmo:42873:1,2022-01-09T08:44:00Z,28.1860,-89.1790,11.0,23.4,11111222
Shell,ioos:station:wmo:42873:1,2022-01-09T08:54:00Z,28.1860,-89.1790,11.0,23.4,11111222
Shell,ioos:station:wmo:42873:1,2022-01-09T09:04:00Z,28.1860,-89.1790,11.0,23.4,11111222
Shell,ioos:station:wmo:42873:1,2022-01-09T09:14:00Z,28.1860,-89.1790,11.0,23.4,11111222
Shell,ioos:station:wmo:42873:1,2022-01-09T09:24:00Z,28.1860,-89.1790,11.0,23.4,11111222
Shell,ioos:station:wmo:42873:1,2022-01-09T09:34:00Z,28.1860,-89.1790,11.0,23.4,11111222
Shell,ioos:station:wmo:42873:1,2022-01-09T09:44:00Z,28.1860,-89.1790,11.0,23.4,11111222
Shell,ioos:station:wmo:42873:1,2022-01-09T09:54:00Z,28.1860,-89.1790,11.0,23.4,11111222
Shell,ioos:station:wmo:42873:1,2022-01-09T10:04:00Z,28.1860,-89.1790,11.0,23.4,11111222
Shell,ioos:station:wmo:42873:1,2022-01-09T10:14:00Z,28.1860,-89.1790,11.0,23.4,11111222
Shell,ioos:station:wmo:42873:1,2022-01-09T10:24:00Z,28.1860,-89.1790,11.0,23.4,11111222
Shell,ioos:station:wmo:42873:1,2022-01-09T10:34:00Z,28.1860,-89.1790,11.0,23.4,11111222
Shell,ioos:station:wmo:42873:1,2022-01-09T10:44:00Z,28.1860,-89.1790,11.0,23.4,11111222
Shell,ioos:station:wmo:42873:1,2022-01-09T10:54:00Z,28.1860,-89.1790,11.0,23.4,11111222
Shell,ioos:station:wmo:42873:1,2022-01-09T11:04:00Z,28.1860,-89.1790,11.0,23.4,11111222
Shell,ioos:station:wmo:42873:1,2022-01-09T11:14:00Z,28.1860,-89.1790,11.0,23.4,11111222
Shell,ioos:station:wmo:42873:1,2022-01-09T11:24:00Z,28.1860,-89.1790,11.0,23.4,11111222
Shell,ioos:station:wmo:42873:1,2022-01-09T11:34:00Z,28.1860,-89.1790,11.0,23.4,11111222
Shell,ioos:station:wmo:42873:1,2022-01-09T11:44:00Z,28.1860,-89.1790,11.0,23.4,11111222
Shell,ioos:station:wmo:42873:1,2022-01-09T11:54:00Z,28.1860,-89.1790,11.0,23.4,11111222
Shell,ioos:station:wmo:42873:1,2022-01-09T12:04:00Z,28.1860,-89.1790,11.0,23.4,11111222
Shell,ioos:station:wmo:42873:1,2022-01-09T12:14:00Z,28.1860,-89.1790,11.0,23.4,11111222
Shell,ioos:station:wmo:42873:1,2022-01-09T12:24:00Z,28.1860,-89.1790,11.0,23.4,11111222
Shell,ioos:station:wmo:42873:1,2022-01-09T12:34:00Z,28.1860,-89.1790,11.0,23.4,11111222
Shell,ioos:station:wmo:42873:1,2022-01-09T12:44:00Z,28.1860,-89.1790,11.0,23.4,11111222
Shell,ioos:station:wmo:42873:1,2022-01-09T12:54:00Z,28.1860,-89.1790,11.0,23.4,11111222
Shell,ioos:station:wmo:42873:1,2022-01-09T13:04:00Z,28.1860,-89.1790,11.0,23.4,11111222
Shell,ioos:station:wmo:42873:1,2022-01-09T13:14:00Z,28.1860,-89.1790,11.0,23.4,11111222
Shell,ioos:station:wmo:42873:1,2022-01-09T13:24:00Z,28.1860,-89.1790,11.0,23.4,11111222
Shell,ioos:station:wmo:42873:1,2022-01-09T13:34:00Z,28.1860,-89.1790,11.0,23.4,11111222
Shell,ioos:station:wmo:42873:1,2022-01-09T13:44:00Z,28.1860,-89.1790,11.0,23.4,11111222
Shell,ioos:station:wmo:42873:1,2022-01-09T13:54:00Z,28.1860,-89.1790,11.0,23.4,11111222
Shell,ioos:station:wmo:42873:1,2022-01-09T14:04:00Z,28.1860,-89.1790,11.0,23.5,11111222
Shell,ioos:station:wmo:42873:1,2022-01-09T14:14:00Z,28.1860,-89.1790,11.0,23.5,11111222
Shell,ioos:station:wmo:42873:1,2022-01-09T14:24:00Z,28.1860,-89.1790,11.0,23.5,11111222
Shell,ioos:station:wmo:42873:1,2022-01-09T14:34:00Z,28.1860,-89.1790,11.0,23.5,11111222
Shell,ioos:station:wmo:42873:1,2022-01-09T14:44:00Z,28.1860,-89.1790,11.0,23.5,11111222
Shell,ioos:station:wmo:42873:1,2022-01-09T14:54:00Z,28.1860,-89.1790,11.0,23.5,11111222
Shell,ioos:station:wmo:42873:1,2022-01-09T15:04:00Z,28.1860,-89.1790,11.0,23.5,11111222
Shell,ioos:station:wmo:42873:1,2022-01-09T15:14:00Z,28.1860,-89.1790,11.0,23.5,11111222
Shell,ioos:station:wmo:42873:1,2022-01-09T15:24:00Z,28.1860,-89.1790,11.0,23.5,11111222
Shell,ioos:station:wmo:42873:1,2022-01-09T15:34:00Z,28.1860,-89.1790,11.0,23.5,11111222
Shell,ioos:station:wmo:42873:1,2022-01-09T15:44:00Z,28.1860,-89.1790,11.0,23.5,11111222
Shell,ioos:station:wmo:42873:1,2022-01-09T15:54:00Z,28.1860,-89.1790,11.0,23.6,11111222
Shell,ioos:station:wmo:42873:1,2022-01-09T16:04:00Z,28.1860,-89.1790,11.0,23.5,11111222
Shell,ioos:station:wmo:42873:1,2022-01-09T16:14:00Z,28.1860,-89.1790,11.0,23.5,11111222
Shell,ioos:station:wmo:42873:1,2022-01-09T16:24:00Z,28.1860,-89.1790,11.0,23.5,11111222
Shell,ioos:station:wmo:42873:1,2022-01-09T16:34:00Z,28.1860,-89.1790,11.0,23.6,11111222
Shell,ioos:station:wmo:42873:1,2022-01-09T16:44:00Z,28.1860,-89.1790,11.0,23.5,11111222
Shell,ioos:station:wmo:42873:1,2022-01-09T16:54:00Z,28.1860,-89.1790,11.0,23.5,11111222
Shell,ioos:station:wmo:42873:1,2022-01-09T17:04:00Z,28.1860,-89.1790,11.0,23.5,11111222
Shell,ioos:station:wmo:42873:1,2022-01-09T17:14:00Z,28.1860,-89.1790,11.0,23.5,11111222
Shell,ioos:station:wmo:42873:1,2022-01-09T17:24:00Z,28.1860,-89.1790,11.0,23.6,11111222
Shell,ioos:station:wmo:42873:1,2022-01-09T17:34:00Z,28.1860,-89.1790,11.0,23.6,11111222
Shell,ioos:station:wmo:42873:1,2022-01-09T17:44:00Z,28.1860,-89.1790,11.0,23.6,11111222
Shell,ioos:station:wmo:42873:1,2022-01-09T17:54:00Z,28.1860,-89.1790,11.0,23.6,11111222
Shell,ioos:station:wmo:42873:1,2022-01-09T18:04:00Z,28.1860,-89.1790,11.0,23.6,11111222
Shell,ioos:station:wmo:42873:1,2022-01-09T18:14:00Z,28.1860,-89.1790,11.0,23.6,11111222
Shell,ioos:station:wmo:42873:1,2022-01-09T18:24:00Z,28.1860,-89.1790,11.0,23.6,11111222
Shell,ioos:station:wmo:42873:1,2022-01-09T18:34:00Z,28.1860,-89.1790,11.0,23.6,11111222
Shell,ioos:station:wmo:42873:1,2022-01-09T18:44:00Z,28.1860,-89.1790,11.0,23.6,11111222
Shell,ioos:station:wmo:42873:1,2022-01-09T18:54:00Z,28.1860,-89.1790,11.0,23.6,11111222
Shell,ioos:station:wmo:42873:1,2022-01-09T19:04:00Z,28.1860,-89.1790,11.0,23.6,11111222
Shell,ioos:station:wmo:42873:1,2022-01-09T19:14:00Z,28.1860,-89.1790,11.0,23.6,11111222
Shell,ioos:station:wmo:42873:1,2022-01-09T19:24:00Z,28.1860,-89.1790,11.0,23.6,11111222
Shell,ioos:station:wmo:42873:1,2022-01-09T19:34:00Z,28.1860,-89.1790,11.0,23.6,11111222
Shell,ioos:station:wmo:42873:1,2022-01-09T19:44:00Z,28.1860,-89.1790,11.0,23.6,11111222
Shell,ioos:station:wmo:42873:1,2022-01-09T19:54:00Z,28.1860,-89.1790,11.0,23.6,11111222
Shell,ioos:station:wmo:42873:1,2022-01-09T20:04:00Z,28.1860,-89.1790,11.0,23.7,11111222
Shell,ioos:station:wmo:42873:1,2022-01-09T20:14:00Z,28.1860,-89.1790,11.0,23.7,11111222
Shell,ioos:station:wmo:42873:1,2022-01-09T20:24:00Z,28.1860,-89.1790,11.0,23.7,11111222
Shell,ioos:station:wmo:42873:1,2022-01-09T20:34:00Z,28.1860,-89.1790,11.0,23.7,11111222
Shell,ioos:station:wmo:42873:1,2022-01-09T20:44:00Z,28.1860,-89.1790,11.0,23.7,11111222
Shell,ioos:station:wmo:42873:1,2022-01-09T20:54:00Z,28.1860,-89.1790,11.0,23.7,11111222
Shell,ioos:station:wmo:42873:1,2022-01-09T21:04:00Z,28.1860,-89.1790,11.0,23.7,11111222
Shell,ioos:station:wmo:42873:1,2022-01-09T21:14:00Z,28.1860,-89.1790,11.0,23.7,11111222
Shell,ioos:station:wmo:42873:1,2022-01-09T21:24:00Z,28.1860,-89.1790,11.0,23.7,11111222
Shell,ioos:station:wmo:42873:1,2022-01-09T21:34:00Z,69.0262,-115.6300,11.0,23.7,11111222
Shell,ioos:station:wmo:42873:1,2022-01-09T21:44:00Z,28.1860,-89.1790,11.0,23.7,11111222
Shell,ioos:station:wmo:42873:1,2022-01-09T21:54:00Z,28.1860,-89.1790,11.0,23.7,11111222
Shell,ioos:station:wmo:42873:1,2022-01-09T22:04:00Z,28.1860,-89.1790,11.0,23.6,11111222
Shell,ioos:station:wmo:42873:1,2022-01-09T22:14:00Z,28.1860,-89.1790,11.0,23.6,11111222
Shell,ioos:station:wmo:42873:1,2022-01-09T22:24:00Z,28.1860,-89.1790,11.0,23.6,11111222
Shell,ioos:station:wmo:42873:1,2022-01-09T22:34:00Z,28.1860,-89.1790,11.0,23.6,11111222
Shell,ioos:station:wmo:42873:1,2022-01-09T22:44:00Z,28.1860,-89.1790,11.0,23.6,11111222
Shell,ioos:station:wmo:42873:1,2022-01-09T22:54:00Z,28.1860,-89.1790,11.0,23.6,11111222
Shell,ioos:station:wmo:42873:1,2022-01-09T23:04:00Z,28.1860,-89.1790,11.0,23.6,11111222
Shell,ioos:station:wmo:42873:1,2022-01-09T23:14:00Z,28.1860,-89.1790,11.0,23.6,11111222
Shell,ioos:station:wmo:42873:1,2022-01-09T23:24:00Z,28.1860,-89.1790,11.0,23.6,11111222
Shell,ioos:station:wmo:42873:1,2022-01-09T23:34:00Z,28.1860,-89.1790,11.0,23.6,11111222
Shell,ioos:station:wmo:42873:1,2022-01-09T23:44:00Z,28.1860,-89.1790,11.0,23.6,11111222
Shell,ioos:station:wmo:42873:1,2022-01-09T23:54:00Z,28.1860,-89.1790,11.0,23.6,11111222
Shell,ioos:station:wmo:42873:1,2022-01-10T00:04:00Z,28.1860,-89.1790,11.0,23.6,11111222
Shell,ioos:station:wmo:42873:1,2022-01-10T00:14:00Z,28.1860,-89.1790,11.0,23.6,11111222
Shell,ioos:station:wmo:42873:1,2022-01-10T00:24:00Z,28.1860,-89.1790,11.0,23.6,11111222
Shell,ioos:station:wmo:42873:1,2022-01-10T00:34:00Z,28.1860,-89.1790,11.0,23.6,11111222
Shell,ioos:station:wmo:42873:1,2022-01-10T00:44:00Z,28.1860,-89.1790,11.0,23.6,11111222
Shell,ioos:station:wmo:42873:1,2022-01-10T00:54:00Z,28.1860,-89.1790,11.0,23.6,11111222
Shell,ioos:station:wmo:42873:1,2022-01-10T01:04:00Z,28.1860,-89.1790,11.0,23.6,11111222
Shell,ioos:station:wmo:42873:1,2022-01-10T01:14:00Z,28.1860,-89.1790,11.0,23.6,11111222
Shell,ioos:station:wmo:42873:1,2022-01-10T01:24:00Z,28.1860,-89.1790,11.0,23.6,11111222
Shell,ioos:station:wmo:42873:1,2022-01-10T01:34:00Z,28.1860,-89.1790,11.0,23.6,11111222
Shell,ioos:station:wmo:42873:1,2022-01-10T01:44:00Z,28.1860,-89.1790,11.0,23.6,11111222
Shell,ioos:station:wmo:42873:1,2022-01-10T01:54:00Z,28.1860,-89.1790,11.0,23.6,11111222
Shell,ioos:station:wmo:42873:1,2022-01-10T02:04:00Z,28.1860,-89.1790,11.0,23.6,11111222
Shell,ioos:station:wmo:42873:1,2022-01-10T02:14:00Z,28.1860,-89.1790,11.0,23.6,11111222
Shell,ioos:station:wmo:42873:1,2022-01-10T02:24:00Z,28.1860,-89.1790,11.0,23.6,11111222
Shell,ioos:station:wmo:42873:1,2022-01-10T02:34:00Z,28.1860,-89.1790,11.0,23.6,11111222
Shell,ioos:station:wmo:42873:1,2022-01-10T02:44:00Z,28.1860,-89.1790,11.0,23.7,11111222
Shell,ioos:station:wmo:42873:1,2022-01-10T02:54:00Z,28.1860,-89.1790,11.0,23.7,11111222
Shell,ioos:station:wmo:42873:1,2022-01-10T03:04:00Z,28.1860,-89.1790,11.0,23.7,11111222
Shell,ioos:station:wmo:42873:1,2022-01-10T03:14:00Z,28.1860,-89.1790,11.0,23.7,11111222
Shell,ioos:station:wmo:42873:1,2022-01-10T03:24:00Z,28.1860,-89.1790,11.0,23.7,11111222
Shell,ioos:station:wmo:42873:1,2022-01-10T03:34:00Z,28.1860,-89.1790,11.0,23.7,11111222
Shell,ioos:station:wmo:42873:1,2022-01-10T03:44:00Z,28.1860,-89.1790,11.0,23.7,11111222
Shell,ioos:station:wmo:42873:1,2022-01-10T03:54:00Z,28.1860,-89.1790,11.0,23.7,11111222
Shell,ioos:station:wmo:42873:1,2022-01-10T04:04:00Z,28.1860,-89.1790,11.0,23.7,11111222
Shell,ioos:station:wmo:42873:1,2022-01-10T04:14:00Z,28.1860,-89.1790,11.0,23.8,11111222
Shell,ioos:station:wmo:42873:1,2022-01-10T04:24:00Z,28.1860,-89.1790,11.0,23.8,11111222
Shell,ioos:station:wmo:42873:1,2022-01-10T04:34:00Z,28.1860,-89.1790,11.0,23.8,11111222
Shell,ioos:station:wmo:42873:1,2022-01-10T04:44:00Z,28.1860,-89.1790,11.0,23.8,11111222
Shell,ioos:station:wmo:42873:1,2022-01-10T04:54:00Z,28.1860,-89.1790,11.0,23.7,11111222
Shell,ioos:station:wmo:42873:1,2022-01-10T05:04:00Z,28.1860,-89.1790,11.0,23.7,11111222
Shell,ioos:station:wmo:42873:1,2022-01-10T05:14:00Z,28.1860,-89.1790,11.0,23.7,11111222
Shell,ioos:station:wmo:42873:1,2022-01-10T05:24:00Z,28.1860,-89.1790,11.0,23.7,11111222
Shell,ioos:station:wmo:42873:1,2022-01-10T05:34:00Z,28.1860,-89.1790,11.0,23.7,11111222
Shell,ioos:station:wmo:42873:1,2022-01-10T05:44:00Z,28.1860,-89.1790,11.0,23.7,11111222
Shell,ioos:station:wmo:42873:1,2022-01-10T05:54:00Z,28.1860,-89.1790,11.0,23.7,11111222
Shell,ioos:station:wmo:42873:1,2022-01-10T06:04:00Z,28.1860,-89.1790,11.0,23.8,11111222
Shell,ioos:station:wmo:42873:1,2022-01-10T06:14:00Z,28.1860,-89.1790,11.0,23.8,11111222
Shell,ioos:station:wmo:42873:1,2022-01-10T06:24:00Z,28.1860,-89.1790,11.0,23.8,11111222
Shell,ioos:station:wmo:42873:1,2022-01-10T06:34:00Z,28.1860,-89.1790,11.0,23.8,11111222
Shell,ioos:station:wmo:42873:1,2022-01-10T06:44:00Z,28.1860,-89.1790,11.0,23.8,11111222
Shell,ioos:station:wmo:42873:1,2022-01-10T06:54:00Z,28.1860,-89.1790,11.0,23.8,11111222
Shell,ioos:station:wmo:42873:1,2022-01-10T07:04:00Z,28.1860,-89.1790,11.0,23.8,11111222
Shell,ioos:station:wmo:42873:1,2022-01-10T07:14:00Z,28.1860,-89.1790,11.0,23.8,11111222
Shell,ioos:station:wmo:42873:1,2022-01-10T07:24:00Z,28.1860,-89.1790,11.0,23.8,11111222
Shell,ioos:station:wmo:42873:1,2022-01-10T07:34:00Z,28.1860,-89.1790,11.0,23.8,11111222
Shell,ioos:station:wmo:42873:1,2022-01-10T07:44:00Z,28.1860,-89.1790,11.0,23.8,11111222
Shell,ioos:station:wmo:42873:1,2022-01-10T07:54:00Z,28.1860,-89.1790,11.0,23.8,11111222
Shell,ioos:station:wmo:42873:1,2022-01-10T08:04:00Z,28.1860,-89.1790,11.0,23.7,11111222
Shell,ioos:station:wmo:42873:1,2022-01-10T08:14:00Z,28.1860,-89.1790,11.0,23.7,11111222
Shell,ioos:station:wmo:42873:1,2022-01-10T08:24:00Z,28.1860,-89.1790,11.0,23.7,11111222
Shell,ioos:station:wmo:42873:1,2022-01-10T08:34:00Z,28.1860,-89.1790,11.0,23.7,11111222
Shell,ioos:station:wmo:42873:1,2022-01-10T08:44:00Z,28.1860,-89.1790,11.0,23.7,11111222
Shell,ioos:station:wmo:42873:1,2022-01-10T08:54:00Z,28.1860,-89.1790,11.0,23.7,11111222
Shell,ioos:station:wmo:42873:1,2022-01-10T09:04:00Z,28.1860,-89.1790,11.0,23.7,11111222
Shell,ioos:station:wmo:42873:1,2022-01-10T09:14:00Z,28.1860,-89.1790,11.0,23.7,11111222
Shell,ioos:station:wmo:42873:1,2022-01-10T09:24:00Z,28.1860,-89.1790,11.0,23.7,11111222
Shell,ioos:station:wmo:42873:1,2022-01-10T09:34:00Z,28.1860,-89.1790,11.0,23.7,11111222
Shell,ioos:station:wmo:42873:1,2022-01-10T09:44:00Z,28.1860,-89.1790,11.0,23.7,11111222
Shell,ioos:station:wmo:42873:1,2022-01-10T09:54:00Z,28.1860,-89.1790,11.0,23.7,11111222
Shell,ioos:station:wmo:42873:1,2022-01-10T10:04:00Z,28.1860,-89.1790,11.0,23.7,11111222
Shell,ioos:station:wmo:42873:1,2022-01-10T10:14:00Z,28.1860,-89.1790,11.0,23.7,11111222
Shell,ioos:station:wmo:42873:1,2022-01-10T10:24:00Z,28.1860,-89.1790,11.0,23.7,11111222
Shell,ioos:station:wmo:42873:1,2022-01-10T10:34:00Z,28.1860,-89.1790,11.0,23.7,11111222
Shell,ioos:station:wmo:42873:1,2022-01-10T10:44:00Z,28.1860,-89.1790,11.0,23.7,11111222
Shell,ioos:station:wmo:42873:1,2022-01-10T10:54:00Z,28.1860,-89.1790,11.0,23.7,11111222
Shell,ioos:station:wmo:42873:1,2022-01-10T11:04:00Z,28.1860,-89.1790,11.0,23.7,11111222
Shell,ioos:station:wmo:42873:1,2022-01-10T11:14:00Z,28.1860,-89.1790,11.0,23.7,11111222
Shell,ioos:station:wmo:42873:1,2022-01-10T11:24:00Z,28.1860,-89.1790,11.0,23.7,11111222
Shell,ioos:station:wmo:42873:1,2022-01-10T11:34:00Z,28.1860,-89.1790,11.0,23.7,11111222
Shell,ioos:station:wmo:42873:1,2022-01-10T11:44:00Z,28.1860,-89.1790,11.0,23.7,11111222
Shell,ioos:station:wmo:42873:1,2022-01-10T11:54:00Z,28.1860,-89.1790,11.0,23.7,11111222
Shell,ioos:station:wmo:42873:1,2022-01-10T12:04:00Z,28.1860,-89.1790,11.0,23.7,11111222
Shell,ioos:station:wmo:42873:1,2022-01-10T12:14:00Z,28.1860,-89.1790,11.0,23.7,11111222
Shell,ioos:station:wmo:42873:1,2022-01-10T12:24:00Z,28.1860,-89.1790,11.0,23.7,11111222
Shell,ioos:station:wmo:42873:1,2022-01-10T12:34:00Z,28.1860,-89.1790,11.0,23.7,11111222
Shell,ioos:station:wmo:42873:1,2022-01-10T12:44:00Z,28.1860,-89.1790,11.0,23.7,11111222
Shell,ioos:station:wmo:42873:1,2022-01-10T12:54:00Z,28.1860,-89.1790,11.0,23.7,11111222
Shell,ioos:station:wmo:42873:1,2022-01-10T13:04:00Z,28.1860,-89.1790,11.0,23.7,11111222
Shell,ioos:station:wmo:42873:1,2022-01-10T13:14:00Z,28.1860,-89.1790,11.0,23.7,11111222
Shell,ioos:station:wmo:42873:1,2022-01-10T13:24:00Z,28.1860,-89.1790,11.0,23.7,11111222
Shell,ioos:station:wmo:42873:1,2022-01-10T13:34:00Z,28.1860,-89.1790,11.0,23.7,11111222
Shell,ioos:station:wmo:42873:1,2022-01-10T13:44:00Z,28.1860,-89.1790,11.0,23.7,11111222
Shell,ioos:station:wmo:42873:1,2022-01-10T13:54:00Z,28.1860,-89.1790,11.0,23.7,11111222
Shell,ioos:station:wmo:42873:1,2022-01-10T14:04:00Z,28.1860,-89.1790,11.0,23.7,11111222
Shell,ioos:station:wmo:42873:1,2022-01-10T14:14:00Z,28.1860,-89.1790,11.0,23.7,11111222
Shell,ioos:station:wmo:42873:1,2022-01-10T14:24:00Z,28.1860,-89.1790,11.0,23.7,11111222
Shell,ioos:station:wmo:42873:1,2022-01-10T14:34:00Z,28.1860,-89.1790,11.0,23.7,11111222
Shell,ioos:station:wmo:42873:1,2022-01-10T14:44:00Z,28.1860,-89.1790,11.0,23.7,11111222
Shell,ioos:station:wmo:42873:1,2022-01-10T14:54:00Z,28.1860,-89.1790,11.0,23.7,11111222
Shell,ioos:station:wmo:42873:1,2022-01-10T15:04:00Z,28.1860,-89.1790,11.0,23.7,11111222
Shell,ioos:station:wmo:42873:1,2022-01-10T15:14:00Z,28.1860,-89.1790,11.0,23.7,11111222
Shell,ioos:station:wmo:42873:1,2022-01-10T15:24:00Z,28.1860,-89.1790,11.0,23.7,11111222
Shell,ioos:station:wmo:42873:1,2022-01-10T15:34:00Z,28.1860,-89.1790,11.0,23.7,11111222
Shell,ioos:station:wmo:42873:1,2022-01-10T15:44:00Z,28.1860,-89.1790,11.0,23.6,11111222
Shell,ioos:station:wmo:42873:1,2022-01-10T15:54:00Z,28.1860,-89.1790,11.0,23.6,11111222
Shell,ioos:station:wmo:42873:1,2022-01-10T16:04:00Z,28.1860,-89.1790,11.0,23.6,11111222
Shell,ioos:station:wmo:42873:1,2022-01-10T16:14:00Z,28.1860,-89.1790,11.0,23.6,11111222
Shell,ioos:station:wmo:42873:1,2022-01-10T16:24:00Z,28.1860,-89.1790,11.0,23.6,11111222
Shell,ioos:station:wmo:42873:1,2022-01-10T16:34:00Z,28.1860,-89.1790,11.0,23.6,11111222
Shell,ioos:station:wmo:42873:1,2022-01-10T16:44:00Z,28.1860,-89.1790,11.0,23.6,11111222
Shell,ioos:station:wmo:42873:1,2022-01-10T16:54:00Z,28.1860,-89.1790,11.0,23.6,11111222
Shell,ioos:station:wmo:42873:1,2022-01-10T17:04:00Z,28.1860,-89.1790,11.0,23.6,11111222
Shell,ioos:station:wmo:42873:1,2022-01-10T17:14:00Z,28.1860,-89.1790,11.0,23.6,11111222
Shell,ioos:station:wmo:42873:1,2022-01-10T17:24:00Z,28.1860,-89.1790,11.0,23.6,11111222
Shell,ioos:station:wmo:42873:1,2022-01-10T17:34:00Z,28.1860,-89.1790,11.0,23.6,11111222